[[{"header":{"parameterUnit":"m.s-1","parameterCategory":1,"la1":30.2991,"la2":30.254,"lo1":-89.0895,"lo2":-89.0444,"dy":0.0017,"dx":0.0017,"nx":28,"ny":28,"refTime":"2024-06-04T09:00:00:Z","depth":0,"parameterNumber":2,"parameterNumberName":"U-component_of_WINDS"},"data":[0,0,0,0,0,0,0,0,0,0,0,0,0,0,0,0,0,0,0,0,0,0,0,0,0,0,0,0,0,0,0,0,0,0,0,0,0,0,0,0,0,0,0,0,0,0,0,0,0,0,0,0,0,0,0,0,0,0,-1.6645,-1.6646,0,-1.6723,-1.6724,-1.6725,-1.6731,-1.673,-1.6729,-1.6729,-1.6812,-1.6815,-1.6818,0,0,0,0,0,0,0,0,0,0,0,0,0,-1.6507,-1.6509,-1.6645,-1.6646,-1.6647,-1.6723,-1.6724,-1.6725,-1.6731,-1.673,-1.6729,-1.6728,-1.6811,-1.6814,-1.6818,0,0,0,0,0,0,0,0,0,0,0,0,0,-1.6574,-1.651,-1.6645,-1.6659,-1.6661,-1.6722,-1.6724,-1.6725,-1.6731,-1.673,-1.6729,-1.6728,-1.6809,-1.6814,-1.6818,-1.6871,0,0,-1.6832,-1.6834,0,0,0,0,0,0,0,0,-1.657,-1.6579,-1.6656,-1.6658,-1.6661,-1.6716,-1.6705,-1.6774,-1.6732,-1.6705,-1.6728,-1.6727,-1.6781,-1.6788,-1.6805,-1.6875,-1.6879,-1.6832,-1.6835,-1.6837,-1.6838,0,0,0,0,0,0,0,-1.6566,-1.6576,-1.6676,-1.6657,-1.666,-1.6663,-1.6671,-1.6718,-1.6749,-1.6707,-1.6708,-1.6717,-1.6782,-1.6801,-1.6807,-1.688,-1.6832,-1.6836,-1.6839,-1.6841,-1.6999,-1.7,0,0,0,0,0,0,-1.6558,-1.6572,-1.6674,-1.6678,-1.6611,-1.6667,-1.6676,-1.67,-1.6749,-1.6755,-1.6718,-1.6717,-1.6794,-1.6802,-1.681,-1.6876,-1.6837,-1.6841,-1.6844,-1.6997,-1.6999,-1.7001,0,0,0,0,0,0,-1.6555,-1.6567,-1.667,-1.6625,-1.6639,-1.667,-1.6697,-1.6702,-1.672,-1.6757,-1.6763,-1.6731,-1.6793,-1.6804,-1.6856,-1.6879,-1.6843,-1.6847,-1.6996,-1.6998,-1.7,-1.7008,0,0,0,0,0,0,-1.6551,-1.6565,-1.6585,-1.6626,-1.6641,-1.6714,-1.6698,-1.6704,-1.6728,-1.6727,-1.6771,-1.6777,-1.6793,-1.6849,-1.6861,-1.6885,-1.6851,-1.6994,-1.6997,-1.6999,-1.7006,-1.701,-1.7014,0,0,0,0,0,-1.6546,-1.6585,-1.6586,-1.6598,-1.6666,-1.6715,-1.6724,-1.6741,-1.673,-1.675,-1.6774,-1.6775,-1.6875,-1.6855,-1.6867,-1.6893,-1.6992,-1.6996,-1.6999,-1.7004,-1.7009,-1.7014,0,0,0,0,0,0,-1.6547,-1.659,-1.6592,-1.6645,-1.6676,-1.6716,-1.6742,-1.6746,-1.6782,-1.678,-1.6801,-1.681,-1.6862,-1.6883,-1.686,-1.6948,-1.6933,-1.6939,-1.6932,-1.6937,-1.6941,-1.6935,-1.6855,0,0,0,0,0,-1.6554,-1.6589,-1.6625,-1.6668,-1.6684,-1.671,-1.6732,-1.6743,-1.6776,-1.679,-1.6817,-1.685,-1.6889,-1.6915,-1.6952,-1.7009,-1.7019,-1.7033,-1.7037,-1.704,-1.7045,-1.7078,-1.7084,-1.7012,-1.7012,-1.7012,0,0,-1.6568,-1.6595,-1.6616,-1.6669,-1.6695,-1.6732,-1.6721,-1.6761,-1.6789,-1.6796,-1.6847,-1.6868,-1.6907,-1.6962,-1.6987,-1.6981,-1.7068,-1.7045,-1.7047,-1.705,-1.7082,-1.7089,-1.7095,-1.7014,-1.7014,-1.7013,0,0,-1.6612,-1.6636,-1.6675,-1.67,-1.6738,-1.6756,-1.6765,-1.6804,-1.6818,-1.6869,-1.6876,-1.691,-1.6976,-1.7004,-1.7027,-1.7082,-1.7085,-1.7094,-1.7115,-1.7146,-1.7152,-1.7157,-1.7177,-1.7184,-1.7099,-1.7099,-1.7099,0,-1.6624,-1.6679,-1.6695,-1.6734,-1.6758,-1.6765,-1.6805,-1.683,-1.6879,-1.6895,-1.6887,-1.6971,-1.6997,-1.7059,-1.7072,-1.709,-1.7103,-1.7089,-1.7149,-1.7155,-1.716,-1.7179,-1.7187,-1.7099,-1.7099,-1.7099,-1.7099,0,-1.6693,-1.6731,-1.6758,-1.6804,-1.6831,-1.6871,-1.6894,-1.6919,-1.6927,-1.6946,-1.6999,-1.7031,-1.7075,-1.7091,-1.71,-1.7154,-1.7149,-1.7145,-1.713,-1.7167,-1.7186,-1.7194,-1.7101,-1.71,-1.71,-1.71,0,0,-1.674,-1.6794,-1.6804,-1.6825,-1.6867,-1.6898,-1.6938,-1.6981,-1.7002,-1.7036,-1.7072,-1.7128,-1.7124,-1.715,-1.7162,-1.719,-1.7232,-1.7182,-1.7184,-1.7191,-1.7295,-1.7297,-1.7305,-1.7234,-1.7236,-1.7237,-1.7291,0,-1.679,-1.686,-1.6876,-1.6938,-1.6973,-1.6981,-1.7016,-1.7047,-1.7066,-1.71,-1.7122,-1.7161,-1.7153,-1.7169,-1.7197,-1.7221,-1.7253,-1.7217,-1.7268,-1.727,-1.7258,-1.7315,-1.7318,-1.7368,-1.7299,-1.73,-1.7301,0,-1.6856,-1.689,-1.6955,-1.6993,-1.7008,-1.704,-1.708,-1.7112,-1.7148,-1.716,-1.7189,-1.7198,-1.7242,-1.7225,-1.7287,-1.7262,-1.7284,-1.7299,-1.7302,-1.7307,-1.7288,-1.7323,-1.7384,-1.7392,-1.7312,-1.7311,-1.7311,0,-1.6884,-1.6946,-1.6993,-1.7011,-1.7056,-1.7078,-1.7099,-1.7133,-1.7157,-1.7193,-1.721,-1.7251,-1.7273,-1.7306,-1.7326,-1.7312,-1.7387,-1.7371,-1.7399,-1.7398,-1.7414,-1.7413,-1.748,-1.7428,-1.7428,-1.7428,-1.7428,0,-1.6938,-1.6977,-1.7006,-1.7035,-1.708,-1.7098,-1.7143,-1.7163,-1.7194,-1.7228,-1.7237,-1.7269,-1.7295,-1.7331,-1.7347,-1.7396,-1.7406,-1.7418,-1.7422,-1.7417,-1.7416,-1.7432,-1.7429,-1.743,-1.7429,-1.7429,-1.7429,0,-1.6977,-1.6998,-1.705,-1.7088,-1.7099,-1.713,-1.7164,-1.7193,-1.7212,-1.7255,-1.7266,-1.7297,-1.7339,-1.7363,-1.7417,-1.7429,-1.7483,-1.7485,-1.7471,-1.7472,-1.7499,-1.7496,-1.7579,-1.7591,-1.7531,-1.7531,-1.7532,0,-1.701,-1.704,-1.7081,-1.7104,-1.7124,-1.7161,-1.7186,-1.7205,-1.7231,-1.7274,-1.7298,-1.7341,-1.7377,-1.7445,-1.7473,-1.7515,-1.7518,-1.7545,-1.7525,-1.7519,-1.7519,-1.7517,-1.7521,-1.7548,-1.7549,-1.7549,-1.7549,0,-1.7066,-1.7074,-1.7109,-1.7148,-1.7177,-1.7208,-1.724,-1.7258,-1.7283,-1.7312,-1.7355,-1.7383,-1.7437,-1.7481,-1.7524,-1.7547,-1.7553,-1.7555,-1.7564,-1.756,-1.755,-1.7556,-1.748,-1.7554,-1.7553,-1.7553,-1.7553,-1.7552,-1.7103,-1.713,-1.7164,-1.7202,-1.7227,-1.7257,-1.7286,-1.7308,-1.7344,-1.7389,-1.7399,-1.7445,-1.748,-1.754,-1.7563,-1.76,-1.7596,-1.7608,-1.7611,-1.7614,-1.7615,-1.7544,-1.7609,-1.7609,-1.7608,-1.7608,-1.7608,0,-1.716,-1.7181,-1.7216,-1.7259,-1.729,-1.7291,-1.7326,-1.7352,-1.7392,-1.7424,-1.7458,-1.7508,-1.755,-1.7581,-1.7624,-1.7648,-1.7652,-1.7659,-1.7657,-1.7663,-1.7617,-1.7605,-1.7655,-1.7655,-1.7655,-1.7655,-1.7655,-1.7655,-1.7193,-1.7239,-1.7252,-1.7312,-1.7334,-1.7377,-1.7397,-1.7425,-1.745,-1.7505,-1.7539,-1.7559,-1.7591,-1.7636,-1.7675,-1.7683,-1.7699,-1.7706,-1.7714,-1.7671,-1.7666,-1.7661,-1.765,-1.7709,-1.7709,-1.7757,-1.7758,-1.7758]},{"header":{"parameterUnit":"m.s-1","parameterCategory":1,"la1":30.2991,"la2":30.254,"lo1":-89.0895,"lo2":-89.0444,"dy":0.0017,"dx":0.0017,"nx":28,"ny":28,"refTime":"2024-06-04T09:00:00:Z","depth":0,"parameterNumber":3,"parameterNumberName":"V-component_of_WINDS"},"data":[0,0,0,0,0,0,0,0,0,0,0,0,0,0,0,0,0,0,0,0,0,0,0,0,0,0,0,0,0,0,0,0,0,0,0,0,0,0,0,0,0,0,0,0,0,0,0,0,0,0,0,0,0,0,0,0,0,0,5.6628,5.6629,0,5.6716,5.6717,5.6718,5.6686,5.6684,5.6682,5.668,5.6766,5.677,5.6774,0,0,0,0,0,0,0,0,0,0,0,0,0,5.6429,5.6433,5.6628,5.6629,5.663,5.6715,5.6717,5.6718,5.6686,5.6684,5.6682,5.6679,5.6764,5.6769,5.6774,0,0,0,0,0,0,0,0,0,0,0,0,0,5.6516,5.6434,5.6628,5.6625,5.6625,5.6715,5.6717,5.6718,5.6687,5.6684,5.6681,5.6678,5.6763,5.6769,5.6775,5.6872,0,0,5.6794,5.6796,0,0,0,0,0,0,0,0,5.6511,5.6523,5.6624,5.6625,5.6626,5.6687,5.6678,5.6769,5.6688,5.6663,5.668,5.6677,5.6742,5.6749,5.6772,5.6876,5.6879,5.6794,5.6798,5.6801,5.6802,0,0,0,0,0,0,0,5.6505,5.6519,5.6662,5.6626,5.6627,5.6618,5.6627,5.6695,5.6718,5.6665,5.6663,5.6674,5.6742,5.6766,5.6774,5.688,5.6794,5.68,5.6803,5.6806,5.7067,5.707,0,0,0,0,0,0,5.6499,5.6514,5.666,5.6665,5.656,5.6624,5.6634,5.667,5.6717,5.6721,5.6677,5.6672,5.6757,5.6767,5.6777,5.6893,5.6801,5.6806,5.681,5.7064,5.7068,5.7071,0,0,0,0,0,0,5.6495,5.6512,5.6656,5.6589,5.6607,5.663,5.6671,5.6674,5.6698,5.6726,5.6729,5.6698,5.6755,5.6768,5.6848,5.6895,5.6809,5.6815,5.706,5.7065,5.707,5.7126,0,0,0,0,0,0,5.6489,5.6511,5.6549,5.659,5.6611,5.6728,5.6674,5.6677,5.6709,5.6705,5.6747,5.6751,5.6754,5.6839,5.6855,5.6902,5.6819,5.7056,5.7062,5.7068,5.712,5.7132,5.7142,0,0,0,0,0,5.6482,5.656,5.6551,5.6569,5.6659,5.6731,5.6742,5.6745,5.6713,5.6751,5.6769,5.6749,5.6888,5.6848,5.6865,5.6915,5.7053,5.706,5.7068,5.7115,5.713,5.7142,0,0,0,0,0,0,5.6522,5.6566,5.6556,5.665,5.6687,5.6725,5.6773,5.6761,5.6807,5.68,5.6801,5.6811,5.6894,5.6912,5.6867,5.7011,5.6965,5.6976,5.6996,5.701,5.7021,5.7015,5.6825,0,0,0,0,0,5.6542,5.6598,5.6633,5.6712,5.6732,5.6749,5.6781,5.678,5.6818,5.6833,5.6856,5.6893,5.6944,5.6978,5.7027,5.7123,5.7131,5.7165,5.7177,5.7186,5.7195,5.7246,5.7262,5.7095,5.7095,5.7095,0,0,5.6584,5.6614,5.6649,5.6721,5.675,5.6807,5.6762,5.6824,5.6866,5.6842,5.692,5.6938,5.6978,5.7067,5.7107,5.7085,5.7243,5.7195,5.7202,5.7207,5.7256,5.7271,5.7285,5.71,5.7099,5.7099,0,0,5.6688,5.6718,5.6787,5.6817,5.6862,5.6873,5.689,5.693,5.6942,5.702,5.7003,5.7052,5.7141,5.717,5.7197,5.7313,5.7297,5.7329,5.7388,5.7438,5.7451,5.7463,5.7504,5.7518,5.7338,5.7338,5.7339,0,5.6734,5.682,5.6824,5.6888,5.692,5.6902,5.6972,5.7,5.7057,5.7079,5.7054,5.7166,5.7192,5.7286,5.7315,5.7337,5.7355,5.7324,5.7449,5.7461,5.7472,5.7511,5.7526,5.7342,5.7342,5.7341,5.7341,0,5.6874,5.6934,5.6984,5.7042,5.708,5.7146,5.7159,5.7196,5.7192,5.7206,5.7285,5.7316,5.7371,5.7393,5.7389,5.7487,5.7472,5.7448,5.7403,5.7491,5.7528,5.7543,5.7347,5.7346,5.7345,5.7344,0,0,5.7006,5.7065,5.7084,5.711,5.7158,5.7203,5.7269,5.7324,5.7355,5.7395,5.7449,5.7526,5.7504,5.7534,5.7534,5.7578,5.7667,5.7548,5.7549,5.7569,5.7776,5.7794,5.7811,5.7657,5.766,5.7662,5.7773,0,5.7114,5.723,5.7235,5.734,5.7396,5.738,5.7436,5.7471,5.7485,5.7533,5.7548,5.7602,5.7569,5.7587,5.763,5.7647,5.7709,5.7639,5.7706,5.7708,5.7696,5.7831,5.785,5.7953,5.7787,5.779,5.7792,0,5.7256,5.7302,5.7413,5.7453,5.7477,5.7528,5.7578,5.7625,5.7663,5.767,5.7705,5.7698,5.7763,5.7716,5.7806,5.7758,5.7786,5.7798,5.7802,5.7808,5.7755,5.784,5.7986,5.8001,5.7814,5.7812,5.7811,0,5.7341,5.743,5.7509,5.7531,5.758,5.7616,5.7638,5.7674,5.7707,5.7751,5.7772,5.7822,5.785,5.7889,5.7895,5.786,5.7985,5.7938,5.7992,5.7992,5.8018,5.8016,5.817,5.8037,5.8036,5.8036,5.8036,0,5.7461,5.7529,5.7547,5.7595,5.7671,5.7676,5.7751,5.7769,5.7802,5.7852,5.7841,5.7888,5.7894,5.7942,5.7948,5.8021,5.8033,5.804,5.8041,5.8041,5.804,5.8059,5.8051,5.804,5.8039,5.8039,5.8038,0,5.7568,5.7583,5.7667,5.7707,5.7719,5.7773,5.7806,5.7851,5.7864,5.7928,5.7943,5.7964,5.802,5.8031,5.8097,5.8101,5.8188,5.8181,5.8175,5.8174,5.8227,5.8222,5.8398,5.8421,5.8273,5.8274,5.8275,0,5.7644,5.7696,5.7742,5.7776,5.78,5.7854,5.7888,5.7894,5.7929,5.7978,5.8017,5.8073,5.8117,5.8208,5.8228,5.8278,5.8273,5.8331,5.828,5.8279,5.8273,5.827,5.8275,5.834,5.8342,5.8343,5.8344,0,5.7776,5.7781,5.7831,5.7884,5.7925,5.7966,5.8006,5.8033,5.8045,5.8085,5.8144,5.8179,5.8247,5.8302,5.8352,5.8373,5.836,5.836,5.8375,5.8376,5.837,5.8374,5.8201,5.8356,5.8355,5.8354,5.8353,5.8353,5.787,5.7916,5.7955,5.8011,5.8042,5.8079,5.8123,5.8143,5.8192,5.8249,5.8249,5.8313,5.835,5.8417,5.8441,5.849,5.8471,5.8493,5.8498,5.8503,5.8508,5.8363,5.8499,5.8498,5.8498,5.8498,5.8498,0,5.8001,5.8026,5.8078,5.8134,5.8177,5.8163,5.8206,5.8243,5.83,5.8336,5.8381,5.8447,5.8501,5.8525,5.8577,5.8612,5.8607,5.8625,5.8622,5.8627,5.8522,5.8504,5.8628,5.8628,5.8628,5.8628,5.8628,5.8628,5.8075,5.8152,5.8162,5.8253,5.8277,5.834,5.8366,5.8399,5.8428,5.8504,5.8549,5.8565,5.8596,5.865,5.8698,5.8704,5.8723,5.8744,5.8747,5.8648,5.8635,5.8622,5.8605,5.8748,5.8748,5.8848,5.8849,5.8849]}]]